Date,TemperatureHighF,TemperatureAvgF,TemperatureLowF,DewpointHighF,DewpointAvgF,DewpointLowF,HumidityHigh,HumidityAvg,HumidityLow,PressureMaxIn,PressureMinIn,WindSpeedMaxMPH,WindSpeedAvgMPH,GustSpeedMaxMPH,PrecipitationSumIn
2013-1-23,49,45,43,-100,-100,-100,0,0,100,0.00,40.00,18,11,0,0.00
2013-1-24,51,44,31,-100,-100,-100,0,0,100,0.00,40.00,27,22,0,0.00
2013-1-25,40,34,28,-100,-100,-100,0,0,100,0.00,40.00,22,14,0,0.00
2013-1-26,50,41,35,-100,-100,-100,0,0,100,0.00,40.00,16,10,0,0.00
2013-1-27,45,40,33,-100,-100,-100,0,0,100,0.00,40.00,18,15,0,0.00
2013-1-28,54,45,38,-100,-100,-100,0,0,100,30.35,30.30,16,8,0,0.00
2013-1-29,60,54,50,-100,-100,-100,0,0,100,30.29,30.16,11,6,0,0.00
2013-1-30,61,58,54,-100,-100,-100,0,0,100,30.16,29.67,25,14,0,0.00
2013-1-31,54,51,49,-100,-100,-100,0,0,100,30.12,29.89,31,20,0,0.00
2013-2-1,53,48,39,-100,-100,-100,0,0,100,30.36,30.09,27,21,0,0.00
2013-2-2,51,42,31,-100,-100,-100,0,0,100,30.41,30.09,18,11,0,0.00
2013-2-3,56,49,44,-100,-100,-100,0,0,100,30.08,29.91,22,14,0,0.00
2013-2-4,49,45,39,-100,-100,-100,0,0,100,30.16,30.05,13,8,0,0.00
2013-2-5,55,51,47,-100,-100,-100,0,0,100,30.08,29.96,18,11,0,0.00
2013-2-6,61,53,50,-100,-100,-100,0,0,100,30.22,30.03,9,6,0,0.00
2013-2-7,57,52,48,-100,-100,-100,0,0,100,30.23,29.82,22,15,0,0.00
2013-2-8,59,54,49,-100,-100,-100,0,0,100,30.03,29.65,22,14,0,0.00
2013-2-9,56,49,41,-100,-100,-100,0,0,100,30.36,30.06,16,12,0,0.00
2013-2-10,55,49,44,-100,-100,-100,0,0,100,30.46,30.26,18,12,0,0.00
2013-2-11,57,56,55,-100,-100,-100,0,0,100,30.29,30.02,25,13,0,0.00
2013-2-12,58,55,52,-100,-100,-100,0,0,100,30.12,29.98,16,7,0,0.00
2013-2-13,60,53,48,-100,-100,-100,0,0,100,29.98,29.72,22,12,0,0.00
2013-2-14,53,49,45,-100,-100,-100,0,0,100,30.08,29.87,13,10,0,0.00
2013-2-16,52,43,35,-100,-100,-100,0,0,100,29.94,29.78,25,14,0,0.00
2013-2-17,41,37,32,-100,-100,-100,0,0,100,30.30,29.96,29,20,0,0.00
2013-2-18,49,42,33,-100,-100,-100,0,0,100,30.44,30.31,13,10,0,0.00
2013-2-19,55,53,49,-100,-100,-100,0,0,100,30.30,29.99,20,10,0,0.00
2013-2-20,51,48,42,-100,-100,-100,0,0,100,30.15,30.02,16,12,0,0.00
2013-2-21,51,47,38,-100,-100,-100,0,0,100,30.22,30.11,18,9,0,0.00
2013-2-22,51,48,44,-100,-100,-100,0,0,100,30.27,30.09,22,16,0,0.00
2013-2-23,51,47,44,-100,-100,-100,0,0,100,30.07,29.88,13,8,0,0.00
2013-2-24,60,52,48,-100,-100,-100,0,0,100,30.03,29.80,16,10,0,0.00
2013-2-25,50,45,42,-100,-100,-100,0,0,100,30.17,30.01,22,16,0,0.00
2013-2-26,60,54,45,-100,-100,-100,0,0,100,30.06,29.63,22,17,0,0.00
2013-2-27,54,52,49,-100,-100,-100,0,0,100,29.88,29.70,22,16,0,0.00
2013-2-28,54,51,49,-100,-100,-100,0,0,100,29.89,29.78,20,16,0,0.00
2013-3-1,53,47,40,-100,-100,-100,0,0,100,29.95,29.87,13,10,0,0.00
2013-3-2,49,46,43,-100,-100,-100,0,0,100,29.95,29.85,13,8,0,0.00
2013-3-3,48,42,36,-100,-100,-100,0,0,100,29.99,29.89,18,14,0,0.00
2013-3-4,51,42,33,-100,-100,-100,0,0,100,30.16,29.99,20,13,0,0.00
2013-3-5,57,53,47,-100,-100,-100,0,0,100,30.14,29.75,22,14,0,0.00
2013-3-6,58,50,45,-100,-100,-100,0,0,100,30.02,29.62,31,26,0,0.00
2013-3-7,54,47,39,-100,-100,-100,0,0,100,30.22,30.04,18,12,0,0.00
2013-3-8,55,47,38,-100,-100,-100,0,0,100,30.26,30.14,20,13,0,0.00
2013-3-9,58,50,42,-100,-100,-100,0,0,100,30.30,30.23,16,9,0,0.00
2013-3-10,55,51,47,-100,-100,-100,0,0,100,30.33,30.25,13,8,0,0.00
2013-3-11,58,54,50,-100,-100,-100,0,0,100,30.26,30.00,13,9,0,0.00
2013-3-12,59,56,54,-100,-100,-100,0,0,100,29.98,29.83,20,11,0,0.00
2013-3-13,57,53,47,-100,-100,-100,0,0,100,30.10,29.95,22,12,0,0.00
2013-3-14,53,46,37,-100,-100,-100,0,0,100,30.27,30.09,20,14,0,0.00
2013-3-15,54,49,41,-100,-100,-100,0,0,100,30.23,30.04,18,11,0,0.00
2013-3-16,58,56,54,-100,-100,-100,0,0,100,30.01,29.83,27,20,0,0.00
2013-3-17,59,57,53,-100,-100,-100,0,0,100,30.09,29.93,18,14,0,0.00
2013-3-18,56,53,49,-100,-100,-100,0,0,100,30.12,29.92,20,12,0,0.00
2013-3-19,66,58,53,-100,-100,-100,0,0,100,30.01,29.80,16,10,0,0.00
2013-3-20,58,52,48,-100,-100,-100,0,0,100,30.12,29.87,16,10,0,0.00
2013-3-21,53,49,43,-100,-100,-100,0,0,100,29.92,29.74,22,16,0,0.00
2013-3-22,51,42,34,-100,-100,-100,0,0,100,30.13,30.00,16,11,0,0.00
2013-3-23,52,49,44,-100,-100,-100,0,0,100,30.09,29.95,13,7,0,0.00
2013-3-24,58,51,45,-100,-100,-100,0,0,100,29.96,29.44,27,15,0,0.00
2013-3-25,52,48,44,-100,-100,-100,0,0,100,29.90,29.59,29,21,0,0.00
2013-3-26,49,44,38,-100,-100,-100,0,0,100,30.13,29.91,25,17,0,0.00
2013-3-27,55,46,39,-100,-100,-100,0,0,100,30.23,30.15,20,14,0,0.00
2013-3-28,56,47,39,-100,-100,-100,0,0,100,30.27,30.18,16,12,0,0.00
2013-3-29,54,50,43,-100,-100,-100,0,0,100,30.35,30.24,18,11,0,0.00
2013-3-30,58,54,52,-100,-100,-100,0,0,100,30.26,30.14,13,9,0,0.00
2013-3-31,59,56,54,-100,-100,-100,0,0,100,30.14,29.92,22,15,0,0.00
2013-4-1,60,58,56,-100,-100,-100,0,0,100,29.94,29.88,18,9,0,0.00
2013-4-2,58,54,50,-100,-100,-100,0,0,100,30.15,29.98,18,12,0,0.00
2013-4-3,57,54,51,-100,-100,-100,0,0,100,30.27,30.11,20,13,0,0.00
2013-4-4,59,53,50,-100,-100,-100,0,0,100,30.27,29.84,31,19,0,0.00
2013-4-5,57,49,44,-100,-100,-100,0,0,100,30.05,29.86,27,12,0,0.00
2013-4-6,59,54,50,-100,-100,-100,0,0,100,30.28,30.06,22,14,0,0.00
2013-4-7,60,54,46,-100,-100,-100,0,0,100,30.29,30.17,16,8,0,0.00
2013-4-8,65,61,57,-100,-100,-100,0,0,100,30.23,30.14,11,5,0,0.00
2013-4-9,65,62,58,-100,-100,-100,0,0,100,30.25,30.16,11,6,0,0.00
2013-4-10,67,64,61,-100,-100,-100,0,0,100,30.19,30.06,16,9,0,0.00
2013-4-11,69,65,61,-100,-100,-100,0,0,100,30.07,29.91,13,8,0,0.00
2013-4-12,67,65,62,-100,-100,-100,0,0,100,29.91,29.76,22,14,0,0.00
2013-4-13,68,61,58,-100,-100,-100,0,0,100,30.05,29.83,16,10,0,0.00
2013-4-14,65,62,57,-100,-100,-100,0,0,100,30.13,30.04,13,5,0,0.00
2013-4-15,65,63,60,-100,-100,-100,0,0,100,30.19,29.94,27,14,0,0.00
2013-4-16,67,64,60,-100,-100,-100,0,0,100,30.27,30.18,11,8,0,0.00
2013-4-17,69,65,61,-100,-100,-100,0,0,100,30.26,30.18,9,5,0,0.00
2013-4-18,69,67,65,-100,-100,-100,0,0,100,30.20,30.11,13,8,0,0.00
2013-4-19,71,69,66,-100,-100,-100,0,0,100,30.08,29.91,22,14,0,0.00
2013-4-20,67,59,55,-100,-100,-100,0,0,100,30.26,29.93,18,14,0,0.00
2013-4-21,62,56,51,-100,-100,-100,0,0,100,30.40,30.26,27,18,0,0.00
2013-4-22,62,53,47,-100,-100,-100,0,0,100,30.35,30.16,22,20,0,0.00
2013-4-23,65,56,52,-100,-100,-100,0,0,100,30.21,30.13,25,15,0,0.00
2013-4-24,67,62,57,-100,-100,-100,0,0,100,30.19,30.09,16,9,0,0.00
2013-4-25,64,64,64,-100,-100,-100,0,0,100,30.15,30.11,11,9,0,0.00